Regional Weather Roundup
Issued by NWS

Home | Current Version | Previous Version | Text Only | Print | Product List | Glossary Off
Versions: 1 2 3 4 5 6 7 8 9 10 11 12 13 14 15 16 17 18 19 20 21 22 23 24 25 26 27 28 29 30 31 32 33 34 35 36 37 38 39 40 41 42 43 44 45 46 47 48 49 50

000
ASUS44 KMEG 281310
RWRTN
TENNESSEE HOURLY STATE WEATHER ROUNDUP
NATIONAL WEATHER SERVICE MEMPHIS TN
800 AM CDT FRI AUG 28 2015

TNZ002-004-019-021-049-052-054-088>092-281400-
WEST TENNESSEE

CITY           SKY/WX    TMP DP  RH WIND       PRES   REMARKS
MEMPHIS INTL   MOSUNNY   69  59  70 E6        30.08R
NWS MEMPHIS      N/A     65 N/A N/A MISG        N/A
JACKSON        MOSUNNY   63  60  90 E3        30.10S
DYERSBURG      SUNNY    N/A N/A N/A MISG        N/A
UNION CITY     SUNNY    N/A N/A N/A VRB3      30.10S
PARIS          SUNNY     63  57  82 NE5       30.12S
LEXINGTON      SUNNY     63  59  88 E3        30.10S
$$

TNZ008-025-027-028-033-062-065-066-281400-
NORTH MIDDLE TENNESSEE

CITY           SKY/WX    TMP DP  RH WIND       PRES   REMARKS
NASHVILLE      MOSUNNY   67  58  72 CALM      30.14R
CLARKSVILLE    SUNNY     63  58  83 E3        30.14R
SMYRNA         SUNNY     63  62  96 CALM      30.15R
COOKEVILLE     SUNNY     64  61  88 CALM      30.15F
CROSSVILLE     SUNNY     68  61  78 CALM      30.21R
$$

TNZ061-075-076-078-094-096-097-281400-
SOUTH MIDDLE TENNESSEE

CITY           SKY/WX    TMP DP  RH WIND       PRES   REMARKS
FAYETTEVILLE   SUNNY     66  61  82 CALM      30.14R
TULLAHOMA      SUNNY     66  59  77 CALM      30.16R
WINCHESTER     SUNNY     68  63  83 CALM      30.15R
MCMINNVILLE    SUNNY     64  64 100 CALM      30.15S
COLUMBIA       SUNNY     63  63 100 CALM      30.12R
SHELBYVILLE    SUNNY     66  63  88 CALM      30.15R
$$

TNZ017-018-042-046-047-281400-
NORTHEAST TENNESSEE

CITY           SKY/WX    TMP DP  RH WIND       PRES   REMARKS
TRI CITIES     MOSUNNY   66  61  84 CALM      30.21R
ELIZABETHTON   MOSUNNY   64  59  82 E3        30.22R
$$

TNZ012-013-036-069-073-074-281400-
CENTRAL EAST TENNESSEE

CITY           SKY/WX    TMP DP  RH WIND       PRES   REMARKS
KNOXVILLE      PTSUNNY   67  63  87 NE5       30.17R
OAK RIDGE      SUNNY     69  60  73 CALM      30.19R
GATLINBURG     MOSUNNY   63  59  88 CALM      30.18R
MORRISTOWN     MOSUNNY   66  61  82 E5        30.20R
$$

TNZ083-085-099-281400-
SOUTHEAST TENNESSEE

CITY           SKY/WX    TMP DP  RH WIND       PRES   REMARKS
CHATTANOOGA    PTSUNNY   70  62  76 NE6       30.16R
$$

SKY/WX REPORTED AS FAIR MEANS FEW OR NO CLOUDS BELOW
12 THOUSAND FEET.



USA.gov is the U.S. government's official web portal to all federal, state and local government web resources and services.